NOAA 16 DEB

Satellite information

Favourite Embed

Satellite Type and Status

DEBRISIN ORBIT

Key statistics

Satellite NOAA 16 DEB at a glance.

Uptime

9168

Days in orbit

Revolutions

≈ 14.8

Per day

Orbit

SSO

Sun Synchronous Orbit

Inclination

98.9

Latest

Satellite identification and parameters

Extended collection of information and parameters for NOAA 16 DEB.

Object identification

Identified? True

Debris? True

Object name: NOAA 16 DEB

International designator: 2000-055FH

Object number (NORAD): 41257

Object ID (CCSDS): 41257

Country: UNITED STATES OF AMERICA (US)

Current information (Y/N): Y

RCS size: SMALL

Orbital parameters

Period: 97.112 minutes

Inclination: 98.9281 deg

SMA: 6998.577 km

Apoapsis: 628.377 km

Periapsis: 612.508 km

RAAN: 117.3562 deg

Eccentricy: 0.0011337

Argument of periapsis: 266.8469 deg

Mean anomaly: 93.1444 deg

Mean motion: 14.82818905 rev/day

Mean motion (dot): 0.00060357 rev/day2

B* drag term: 0.0073953 1/REarth

Two-line elements (TLE)

Creation date: Oct. 27, 2025, 2:36 p.m.

Reference frame: TEME

Reference center: EARTH

Epoch: Oct. 27, 2025, 5:55 a.m. UTC

TLE line 0: 0 NOAA 16 DEB

TLE line 1: 1 41257U 00055FH 25300.24710722 .00060357 00000-0 73953-2 0 9994

TLE line 2: 2 41257 98.9281 117.3562 0011337 266.8469 93.1444 14.82818905510017

Live tracking on map

Real-time ground track for satellite NOAA 16 DEB.

In-orbit conjunctions

A list of the most updated potential collisions computed for object NOAA 16 DEB.

Target Orbit TCA Probability of collision Miss distance Type
MAST SSO 2025-07-24 10:09:40 0.0002781376 328.0 (m) PAYLOAD
BILSAT 1 SSO 2025-06-13 09:16:06 0.0001854817 867.0 (m) PAYLOAD
FENGYUN 1C DEB SSO 2024-09-26 02:33:59 0.0002234687 570.0 (m) DEBRIS
COSMOS 2251 DEB LEO 2024-09-25 14:27:18 0.0002269459 640.0 (m) DEBRIS
COSMOS 614 LEO 2024-08-17 06:33:15 0.0001012989 312.0 (m) PAYLOAD

Associated space launch

The NOAA K, L and M POES satellites begin the fifth generation of improved environmental monitoring in support of NOAA missions. The instrument payload has significant improvements and additions/deletions. The instrument changes have effected the spacecraft subsystems and data formats.

NOAA 16 DEB was lifted into orbit during the mission ‘Titan II SLV | NOAA 16’, on board a Titan II SLV space rocket.

The launch took place on Sept. 21, 2000, 10:22 a.m. from Space Launch Complex 4W.

For more information about the launch, click the button.

Launch to space Titan II SLV | NOAA 16
Titan II SLV | NOAA 16

Agency: N/A

Status: Launch Successful

Launch date: Sept. 21, 2000, 10:22 a.m. UTC

Rocket: Titan II SLV

Launch pad: Space Launch Complex 4W

Location: Vandenberg SFB, CA, USA

...

Latest news about this satellite

There are no fresh news available about this satellite. Check back as we update our databases every day.


Newsletter sign-up

Weekly statistics, charts and insights to help you stay on top of the space industry.